Location: ??????
(38.3184°N, 23.6932°E)
Time: 01:42:09
(UTC+00:00)

CSL-04 Rocket - Pass Details

Date: 16 October 2021
Orbit: 805 x 860 km, 98.9° (Epoch: 04 December)

Event Time Altitude Azimuth Distance (km) Brightness Sun altitude
Exits shadow 17:48:33 61° 128° (SE) 965 3.7 -24.8°
Maximum altitude 17:49:23 72° 74° (ENE) 897 3.6 -25.0°
Drops below altitude 10° 17:54:55 10° 351° (N) 2,500 6.3 -26.0°
Sets 17:57:19 0° 349° (N) 3,443 7.1 -26.5°
